Location: Fours
(44.3167°N, 6.7000°E)
Time: 10:37:10
(UTC+00:00)

ISS - Pass Details

Date: 29 September 2021
Orbit: 417 x 423 km, 51.6° (Epoch: 27 October)

Event Time Altitude Azimuth Distance (km) Brightness Sun altitude
Rises 19:50:32 0° 301° (WNW) 2,368 1.3 -27.5°
Reaches altitude 10° 19:52:38 10° 301° (WNW) 1,502 0.0 -27.8°
Enters shadow 19:53:51 21° 302° (WNW) 1,017 -1.1 -28.0°
